Kuchera_Ratio
0.0 0.0 0.0 0.0 0.0 0.0 0.0 0.0 0.0 0.0 0.0 0.0 0.0 0.0 0.0 0.0 0.0 0.0 0.0 0.0 0.0 0.0 0.0 0.0 0.0 0.0 0.0
0.0 0.0 0.0 0.0 0.0 0.0 0.0 0.0 0.0 0.0 0.0 0.0 0.0 0.0 0.0 0.0 0.0 0.0 0.0 0.0 0.0 0.0 0.0 0.0 0.0 0.0 0.0
0.0 0.0 0.0 0.0 0.0 0.0 0.0 0.0 0.0 0.0 0.0 0.0 0.0 0.0 0.0 0.0 0.0 0.0 0.0 0.0 0.0 0.0 0.0 0.0 0.0 0.0 0.0
0.0 0.0 0.0 0.0 0.0 0.0 0.0 0.0 0.0 0.0 0.0 0.0 0.0 0.0 0.0 0.0 0.0 0.0 0.0 0.0 0.0 0.0 0.0 0.0 0.0 0.0 0.0
0.0 0.0 0.0 0.0 0.0 0.0 0.0 0.0 0.0 0.0 0.0 0.0 0.0 0.0 0.0 0.0 0.0 0.0 0.0 0.0 0.0 0.0 0.0 0.0 0.0 0.0 0.0
0.0 0.0 0.0 0.0 0.0 0.0 0.0 0.8 2.9 0.0 0.0 0.0 0.0 0.0 0.0 0.0 0.0 0.0 0.0 0.0 0.0 0.0 0.0 0.0 0.0 0.0 0.0
0.0 0.0 0.0 0.0 0.0 0.0 0.0 0.0 0.0 0.0 0.0 0.0 0.0 0.0 0.0 0.0 0.0 0.0 0.0 0.0 0.0 0.0 0.0 0.0 0.0 0.0 0.0
0.0 0.0 0.0 0.0 0.0 0.0 0.0 0.0 0.0 0.0 0.0 3.4 0.0 0.0 0.0 0.0 0.0 0.0 0.0 0.0 0.0 0.0 0.0 0.0 0.0 0.0 0.0
0.0 0.0 0.0 0.0 0.0 0.0 1.4 2.5 4.0 1.1 0.0 0.6 0.0 0.4 0.0 0.0 0.0 0.0 0.0 0.0 0.0 0.0 0.0 0.0 0.0 0.0 0.0
0.0 0.0 0.0 0.0 0.0 0.0 0.3 5.7 6.1 9.3 0.0 4.5 3.9 3.5 8.8 0.0 0.0 0.0 0.0 0.0 0.0 0.0 0.0 0.0 0.0 0.0 0.0
0.0 0.0 0.0 0.0 0.0 0.0 0.0 2.1 7.6 9.1 0.9 2.8 7.1 5.8 6.7 6.8 1.5 0.0 0.0 0.0 0.0 0.0 0.0 0.0 0.0 0.0 0.0
2.6 3.0 2.8 2.5 1.0 0.2 0.1 0.7 0.3 2.9 0.3 1.2 8.1 7.5 9.1 9.9 9.6 2.3 0.0 0.0 0.0 0.0 0.0 0.0 0.0 0.0 0.0
5.6 4.7 3.6 2.8 3.8 4.6 2.7 2.6 5.3 4.6 1.9 3.6 6.3 7.2 7.7 11.1 11.3 7.4 6.4 3.1 0.0 0.5 1.6 0.8 1.8 1.8 1.8
5.6 5.2 5.3 6.5 6.7 4.7 7.5 7.7 9.7 7.7 2.3 3.2 4.6 5.7 9.9 8.4 8.5 10.3 6.3 9.6 3.6 4.3 3.4 2.0 2.1 1.9 1.5
9.9 10.4 10.4 10.3 10.4 8.6 10.1 10.4 12.1 10.8 9.7 7.4 5.5 5.5 6.4 9.1 12.4 8.6 7.9 7.0 4.6 5.9 5.3 6.9 3.5 3.5 4.8
8.4 9.3 11.4 12.0 12.4 11.3 9.5 11.4 12.6 12.0 11.1 8.7 9.5 10.4 9.8 7.0 3.4 8.0 7.2 7.5 5.6 5.8 6.7 8.5 6.9 6.5 7.0
10.3 10.6 10.9 10.9 11.8 12.8 12.7 12.4 12.8 12.4 11.3 9.7 10.5 12.9 14.4 14.9 7.2 2.2 8.8 8.6 8.2 8.2 6.3 7.6 9.1 8.3 6.5